sat.trackr.live / text

‹ back to catalog

STARLINK-3997

NORAD 52609 · 2022-052M

PAYLOAD ACTIVE UNKNOWN

§ Identity

Operator
Country
US
Launch date
2022-05-14
Launch site
AFETR
Launch vehicle
Mass (kg)
RCS (m²)

Purposes: comms

External: N2YO · Heavens-Above · Gunter

§ Orbital elements

Epoch: 2026-09-20T04:17:15.799776Z

Period
93.85 min
Inclination
53.1603°
Eccentricity
0.0001427
Mean motion
15.34387011 rev/d
Perigee alt
461.8 km
Apogee alt
463.7 km
Semi-major
6,840.9 km
B*
2.2864e-5
RAAN
116.8822°
Arg perigee
82.8701°
Mean anomaly
277.2463°
Rev number
24,034

§ Raw data

STARLINK-39971 52609U 22052M   26263.17865509  .00000396  00000+0  22864-4 0  99962 52609  53.1603 116.8822 0001427  82.8701 277.2463 15.34387011240347

JSON: /api/v1/satellites/52609 · /tle

For live sub-satellite position, see the globe view (requires WebGL).

§ Visibility from observer

Set your observer location to see the next 7 days of passes ≥ 10°. The values pass through the URL so the page stays shareable.

No JS? Fill the form by hand. The geolocation button needs JavaScript.